カタログに戻る

IMS-1

運用中科学SSO
NORAD 32786·PAYLOAD·🇮🇳 India

打ち上げ Apr 28, 2008 から Satish Dhawan Space Centre

Loading…

次のパス (今後24時間)

TLE

最新Source: Space-Track

元期: Sep 14, 2026, 10:35 UTC

1 32786U 08021D   26257.44112565  .00003285  00000-0  23607-3 0  9996
2 32786  97.9566 246.4692 0005317 136.7914 223.3730 15.05002696996626

AllMySatでIMS-1をリアルタイム追跡

Download on the App Store